Location: Manlay
(47.1285°N, 4.3416°E)
Time: 15:42:07
(UTC+00:00)

Daily predictions for brighter satellites

Satellite Brightness Start Highest point End
(mag) Time Altitude Azimuth Time Altitude Azimuth Time Altitude Azimuth
Cosmos 1709 Rocket 4.1 18:11:13 10° S 18:17:20 59° E 18:23:25 10° NNE
Nadezhda 1 Rocket 4.3 18:13:47 10° NNW 18:19:53 73° W 18:25:54 10° S
H-2A R/B 2.1 18:17:07 10° NNE 18:21:22 55° E 18:25:29 10° S
deb Kosmos-1763 4.1 18:19:52 10° NNW 18:23:19 76° WSW 18:26:46 10° SSE
IRAS Rocket 4.5 18:20:31 10° NNE 18:26:11 80° WNW 18:31:49 10° SSW
Cosmos 2208 Rocket 4.1 18:21:49 10° NNW 18:27:00 61° ENE 18:32:13 10° SE
Cosmos 1356 Rocket 4.0 18:23:36 10° SSE 18:27:28 37° E 18:31:25 10° NNE
Cosmos 841 Rocket 4.0 18:22:34 10° NNW 18:27:48 67° WSW 18:32:58 10° S
Cosmos 1814 Rocket 4.1 18:24:17 10° NNW 18:29:41 84° ENE 18:35:01 10° SSE
DMSP B5D2-2 4.3 18:24:37 10° NNE 18:29:47 51° E 18:34:55 10° S
IRS-1C Rocket 4.1 18:25:24 10° SSE 18:30:38 74° ENE 18:35:54 10° NNW
COSMOS 2455 4.1 18:26:17 10° NNW 18:31:19 26° NE 18:36:18 10° E
SeaSat 1 2.6 18:27:45 10° SE 18:32:36 61° ENE 18:37:28 10° NNW
Cosmos 2344 4.3 18:26:48 10° WSW 18:34:03 55° NW 18:42:01 10° NE
Okean O Rocket 3.6 18:30:28 10° SSW 18:34:27 33° W 18:38:26 10° NNW
ARGOS 3.8 18:29:19 10° S 18:34:36 62° WSW 18:39:56 10° NNW
ERBS 3.0 18:37:24 10° SSW 18:40:23 33° SE 18:43:22 10° ENE
Cosmos 1707 3.9 18:37:45 10° NNE 18:41:01 25° ENE 18:44:05 11° SE
Cosmos 1743 3.1 18:37:38 10° SSW 18:41:27 67° W 18:45:19 10° N
Cosmos 1975 3.4 18:39:22 10° SSE 18:42:57 34° E 18:46:36 10° NNE
CSL-04 Debris 4.2 18:38:02 10° SSE 18:43:23 66° ENE 18:48:45 10° N
OBJECT-B 1.6 18:41:47 10° SE 18:44:38 30° ENE 18:47:31 10° N
DMSP B5D1-3 4.5 18:39:34 10° NNE 18:44:41 79° ESE 18:49:47 10° S
Cosmos 1943 Rocket 3.5 18:41:30 10° SE 18:44:48 16° E 18:48:08 10° ENE
Cosmos 968 Rocket 3.8 18:40:09 10° S 18:45:05 44° ESE 18:50:04 10° NNE
USA 215 3.9 18:39:25 10° SE 18:45:51 56° SW 18:52:18 10° WNW
USA 305 3.0 18:43:28 10° WSW 18:47:41 77° NNW 18:51:56 10° ENE
Lacrosse 5 rocket 3.3 18:44:38 10° NW 18:48:24 24° N 18:52:05 10° ENE
ISS -2.1 18:49:24 10° S 18:51:42 17° SE 18:52:23 16° ESE
CZ-2C R/B 3.6 18:47:17 10° N 18:52:34 53° WNW 18:57:55 10° SW
Cosmos 921 Rocket 2.9 18:48:55 10° NNW 18:53:17 75° ENE 18:57:33 10° SSE
Cosmos 1461 4.4 18:52:35 10° NNW 18:55:44 21° NE 18:57:53 14° ENE
SL-4 R/B 2.7 18:54:14 10° WNW 18:57:27 37° SW 19:00:24 12° SSE
USA 307 3.1 18:54:10 10° WSW 18:58:23 72° NNW 19:02:38 10° ENE
Cosmos 1908 Rocket 4.4 18:58:50 10° SSE 19:02:42 30° E 19:06:36 10° NNE
Meteor 2-9 Rocket 4.2 18:57:11 10° S 19:02:58 75° E 19:08:52 10° NNE
Cosmos 1842 3.3 19:00:18 10° N 19:04:16 83° W 19:08:11 10° S
USA 281 4.0 18:59:53 10° NE 19:05:18 27° ESE 19:10:40 10° SSE
SJ-6B 3.1 19:04:20 12° SSE 19:07:56 53° ENE 19:11:58 10° N
Cosmos 1689 Rocket 4.3 19:06:23 10° NE 19:06:35 11° NE 19:06:35 11° NE
Cosmos 1400 Rocket 3.7 19:07:16 17° SE 19:09:32 28° E 19:13:04 10° NNE
Cosmos 2221 Rocket 3.9 19:07:18 10° NNW 19:11:44 68° W 19:16:06 10° S
Cosmos 1378 Rocket 3.5 19:08:34 10° N 19:12:57 65° E 19:17:05 11° SSE
ATLAS CENTAUR R/B 3.1 19:11:16 10° NNW 19:15:02 25° NE 19:17:09 18° ENE
USA 306 3.5 19:11:02 10° WSW 19:15:10 56° NNW 19:19:11 11° NE
USA 308 3.4 19:13:11 10° WSW 19:17:22 58° NNW 19:21:18 12° NE
Cosmos 1674 3.6 19:14:23 10° NNE 19:17:37 27° ENE 19:18:00 27° E
COSMOS 2406 4.2 19:17:29 10° NW 19:22:59 46° WSW 19:28:26 10° S
Inspiration4 3.0 19:19:43 10° SW 19:23:47 44° SE 19:25:24 30° E
Okean-O 3.9 19:20:17 10° S 19:24:28 41° W 19:28:41 10° NNW
Cosmos 1833 Rocket 4.1 19:21:26 10° NW 19:26:32 36° WSW 19:31:37 10° S
Cosmos 1674 Rocket 3.6 19:22:46 10° NNW 19:27:10 80° W 19:31:30 10° S
Meteor 2-12 Rocket 4.4 19:22:00 10° S 19:28:08 86° E 19:34:17 10° N
CZ-4B R/B 2.9 19:26:38 10° N 19:29:25 34° WNW 19:32:13 10° SW
Meteor 1-21 4.4 19:23:57 10° NNW 19:29:40 77° W 19:35:17 10° S
In-Cosmos 22 4.0 19:24:52 10° N 19:30:12 76° ENE 19:34:24 16° SSE
USA 186 2.1 19:30:09 24° SSW 19:31:30 50° W 19:34:16 10° NNW
Cosmos 2074 Rocket 3.9 19:25:29 10° S 19:31:43 82° E 19:38:01 10° N
Lacrosse 4 Rocket 2.6 19:30:57 10° WSW 19:34:47 41° NW 19:38:39 10° NNE
USA 276 4.4 19:33:26 10° SSW 19:34:01 14° SSW 19:34:01 14° SSW
Cosmos 1932 4.4 19:30:44 10° SSW 19:37:01 87° SE 19:43:17 10° NE
SPOT 3 Rocket 4.3 19:36:02 29° E 19:37:13 33° ENE 19:41:46 10° N
Cosmos 2082 Rocket 2.7 19:32:11 10° NNW 19:37:49 61° WSW 19:42:44 14° S
Resurs 01 Rocket 2.1 19:40:22 38° E 19:41:04 40° ENE 19:45:13 10° N
Okean 2 3.9 19:38:49 10° NNW 19:42:50 57° W 19:46:18 13° S
Cosmos 1340 3.7 19:45:55 10° NNW 19:49:32 45° W 19:52:08 17° SSW
CSL-04 DEB 4.3 19:47:17 10° NNE 19:51:19 86° WNW 19:55:14 10° SSW
Helios 1A Rocket 2.9 19:49:40 35° S 19:51:21 80° WSW 19:55:29 10° NNW
Cosmos 1782 Rocket 3.6 19:52:42 52° ESE 19:52:55 53° E 19:57:16 10° NNE
Ariane Rocket 2.9 19:53:09 37° SSE 19:55:11 78° ENE 20:00:17 10° NNW
Terra 3.9 19:56:16 13° NE 19:56:16 13° NE 19:57:57 10° NNE
Cosmos 2278 Rocket 3.8 19:55:05 10° WSW 20:00:15 35° NW 20:05:27 10° NNE
IRS-1A Rocket 4.3 19:57:02 28° SSE 20:00:17 88° WSW 20:06:12 10° NNW
Cosmos 2297 3.6 19:57:14 10° SSW 20:02:53 74° ESE 20:08:37 10° NNE
Resurs 1-3 3.9 20:06:22 36° SSW 20:07:58 62° W 20:12:21 10° NNW
Cosmos 1626 2.7 20:04:36 10° N 20:07:24 46° NNE 20:07:24 46° NNE
Cosmos 1346 Rocket 2.9 20:04:54 10° N 20:08:28 64° NNE 20:08:28 64° NNE
Cosmos 2369 Rocket 3.7 20:12:19 21° NE 20:12:19 21° NE 20:14:23 10° NE
MOS 1 4.5 20:08:03 28° S 20:11:10 70° WSW 20:16:52 10° NNW
Cosmos 1503 Rocket 3.9 20:08:04 10° SSW 20:13:19 85° WNW 20:18:33 10° NNE
SPOT 1/Viking Rocket 3.6 20:15:41 58° E 20:15:57 59° ENE 20:21:03 10° N
ERBS 3.7 20:13:20 10° W 20:16:21 35° NNW 20:16:21 35° NNW
Landsat 7 3.7 20:16:04 69° SSE 20:16:40 88° ENE 20:21:28 10° NNW
OBJECT-B 3.7 20:14:48 10° SW 20:16:48 16° W 20:18:50 10° NW
COSMOS 2455 2.8 20:11:53 10° NW 20:17:57 81° WSW 20:19:34 51° SSE
Cosmos 962 Rocket 4.3 20:16:02 38° S 20:18:32 73° E 20:24:42 10° NNE
IGS 5A 3.5 20:19:04 70° WSW 20:19:12 71° WSW 20:23:22 10° NNW
Cosmos 1975 Rocket 3.0 20:17:46 10° N 20:22:05 83° WNW 20:22:05 83° WNW
Cosmos 1354 Rocket 4.0 20:19:39 10° SSW 20:24:55 81° WNW 20:30:13 10° NNE
Cosmos 1943 Rocket 2.1 20:22:14 10° SSW 20:27:47 82° WNW 20:33:26 10° NNE
USA 305 4.2 20:24:10 10° WNW 20:28:02 34° N 20:28:50 31° NNE
ISS -1.1 20:24:47 10° WSW 20:25:27 15° WSW 20:25:27 15° WSW
Lacrosse 5 rocket 2.2 20:24:02 10° NW 20:28:07 46° NNE 20:28:07 46° NNE
Cosmos 1461 3.7 20:31:09 10° NW 20:34:13 45° WNW 20:34:13 45° WNW
USA 307 4.3 20:34:56 10° WNW 20:38:48 33° N 20:39:09 33° N
Cosmos 1025 Rocket 3.8 20:37:09 10° N 20:40:22 49° NNW 20:40:22 49° NNW
SPOT 5 3.8 20:43:03 42° NE 20:43:03 42° NE 20:47:13 10° N
USA 281 3.4 20:43:43 10° NNE 20:50:15 68° WNW 20:56:44 10° SW
Spot 2 Rocket 4.0 20:51:41 53° N 20:51:41 53° N 20:55:39 10° N
SL-8 Rocket 3.9 20:52:20 77° S 20:52:51 90° W 20:59:12 10° N
Meteor 1-24 Rocket 4.0 20:48:37 10° N 20:52:51 55° NNE 20:52:51 55° NNE
ATLAS CENTAUR R/B 2.4 20:49:42 10° NW 20:53:17 51° WNW 20:53:17 51° WNW
Meteor 1-15 Rocket 4.2 20:56:17 76° WNW 20:56:17 76° WNW 21:01:47 10° N
Cosmos 1727 Rocket 4.2 20:51:26 10° N 20:57:07 59° NE 20:57:07 59° NE
Cosmos 2341 Rocket 4.4 21:03:33 42° SW 21:05:33 61° WNW 21:11:52 10° N
Meteor 2-5 Rocket 4.1 21:08:31 10° NNW 21:13:17 60° NW 21:13:17 60° NW
Resurs 01 Rocket 3.7 21:17:56 23° W 21:17:56 23° W 21:21:13 10° NW
SJ 16-02 3.9 21:27:03 16° N 21:27:03 16° N 21:27:57 10° NNE
Cosmos 2297 Rocket 4.1 21:24:50 10° N 21:28:14 20° NNE 21:28:14 20° NNE
Cosmos 2218 Rocket 4.3 21:29:22 59° WNW 21:29:22 59° WNW 21:35:22 10° N
Cosmos 2366 rocket 4.4 21:31:14 58° WNW 21:31:14 58° WNW 21:37:08 10° N
Terra 3.5 21:35:09 29° NNW 21:35:09 29° NNW 21:37:30 10° NNW
ERS-1 Rocket 4.4 21:39:20 36° NW 21:39:20 36° NW 21:42:22 10° NNW
Cosmos 2227 Rocket 4.2 21:45:36 10° N 21:48:50 20° NNE 21:48:50 20° NNE
Cosmos 2369 Rocket 3.4 21:54:02 38° NNW 21:54:02 38° NNW 21:58:32 10° NNE
CENTAUR R/B 4.1 22:53:55 29° NE 22:53:55 29° NE 22:57:21 10° NE
Cosmos 2297 Rocket 4.3 23:08:06 10° NNW 23:10:01 22° NNW 23:10:01 22° NNW
Cosmos 2227 Rocket 4.4 23:28:58 10° NNW 23:30:37 20° NNW 23:30:37 20° NNW
